CW0655 Weather Reports


Display with metric or nautical units.
time (UTC)temp
F
wind
direction
speed
MPH
gust
MPH
rain 1hr
in
rain 24hr
in
rain mn
in
humidity
%
barometer
mb
20210622174107 69 111 0.0 4.0 0.00 0.00 0.00 77 1006.0
20210622173106 70 157 0.0 6.0 0.00 0.00 0.00 76 1005.9
20210622171106 71 82 0.0 9.0 0.00 0.00 0.00 76 1005.6
20210622170106 71 51 1.0 5.0 0.00 0.00 0.00 81 1005.5
20210622155107 74 159 0.0 5.0 0.00 0.00 0.00 76 1005.5
20210622153105 76 101 1.0 6.0 0.00 0.00 0.00 79 1005.1
20210622152105 77 20 0.0 4.0 0.00 0.00 0.00 80 1005.0
20210622143104 79 94 0.0 2.0 0.00 0.00 0.00 81 1004.6
20210622141104 77 150 0.0 0.0 0.00 0.00 0.00 84 1004.7
20210622134104 76 150 0.0 0.0 0.00 0.00 0.00 87 1004.7
20210622121103 74 150 0.0 0.0 0.00 0.00 0.00 92 1004.3
20210622115132 73 150 0.0 0.0 0.00 0.00 0.00 93 1004.0
20210622111132 71 150 0.0 0.0 0.00 0.00 0.00 94 1003.5
20210622084129 71 150 0.0 0.0 0.00 0.00 0.00 93 1002.4
20210622082129 71 150 0.0 0.0 0.00 0.00 0.00 93 1002.2
20210622075128 71 150 0.0 0.0 0.00 0.00 0.00 93 1002.2
20210622074128 71 150 0.0 1.0 0.00 0.00 0.00 93 1002.0
20210622073128 71 150 0.0 2.0 0.00 0.00 0.00 93 1001.9
20210622071128 71 150 0.0 2.0 0.00 0.00 0.00 92 1001.6
20210622070128 71 150 0.0 2.0 0.00 0.00 0.00 92 1001.5
20210622062128 71 146 0.0 1.0 0.00 0.00 0.00 92 1001.4
20210622054127 72 146 0.0 0.0 0.00 0.00 0.00 91 1001.5
20210622052127 73 146 0.0 0.0 0.00 0.00 0.00 90 1002.0
20210622051127 73 146 0.0 2.0 0.00 0.00 0.00 90 1002.1
20210622050127 73 146 0.0 0.0 0.00 0.00 0.00 90 1002.2
20210622044127 73 146 0.0 2.0 0.00 0.00 0.00 90 1002.5
20210622042127 73 146 0.0 0.0 0.00 0.00 0.00 89 1002.6
20210622040127 74 146 0.0 3.0 0.00 0.00 0.00 88 1002.9
20210622034127 74 146 0.0 3.0 0.00 0.00 0.00 88 1003.2
20210622025127 75 165 0.0 2.0 0.00 0.00 0.00 88 1003.4
20210622020126 75 166 0.0 4.0 0.00 0.00 0.00 87 1002.8
20210622014126 75 164 0.0 1.0 0.00 0.00 0.00 86 1002.7
20210622013126 75 164 0.0 2.0 0.00 0.00 0.00 85 1002.5
20210622012125 75 186 0.0 2.0 0.00 0.00 0.00 85 1002.5
20210622011125 76 186 1.0 5.0 0.00 0.00 0.00 84 1002.4
20210622010125 76 184 0.0 3.0 0.00 0.00 0.00 84 1002.2
20210622005125 76 184 0.0 6.0 0.00 0.00 0.00 84 1002.0
20210622002125 76 161 0.0 1.0 0.00 0.00 0.00 83 1002.5
20210621235126 77 205 0.0 5.0 0.00 0.00 0.00 81 1002.3
20210621234124 78 182 2.0 5.0 0.00 0.00 0.00 80 1001.9
20210621233125 78 184 2.0 9.0 0.00 0.00 0.00 79 1001.9
20210621230124 79 177 2.0 4.0 0.00 0.00 0.00 78 1001.9
20210621223124 79 181 4.0 5.0 0.00 0.00 0.00 76 1001.8
20210621222123 80 199 0.0 6.0 0.00 0.00 0.00 75 1002.0
20210621220123 80 186 3.0 6.0 0.00 0.00 0.00 74 1002.1
20210621210122 81 180 0.0 9.0 0.00 0.00 0.00 74 1002.3
20210621205122 82 182 0.0 7.0 0.00 0.00 0.00 74 1002.4
20210621203122 83 184 0.0 3.0 0.00 0.00 0.00 73 1002.7
20210621194121 83 188 0.0 5.0 0.00 0.00 0.00 72 1003.3
20210621193122 83 153 0.0 5.0 0.00 0.00 0.00 71 1003.5
20210621184121 85 184 3.0 6.0 0.00 0.00 0.00 71 1003.8
20210621183121 86 211 0.0 7.0 0.00 0.00 0.00 67 1003.8
20210621182121 86 165 0.0 4.0 0.00 0.00 0.00 71 1003.9
20210621180120 86 204 0.0 6.0 0.00 0.00 0.00 69 1004.0